Wind_Speed
17 17 17 18 18 19 20 21 22 24 25 26 27 28 29 30 31 31 31 31 31 31 32 32 33 33 34 34 34 34 33 33 33 33 33 32 32 33 32 32 32 32 32
15 16 17 17 18 19 20 22 23 24 26 27 28 30 30 31 32 33 33 32 32 31 31 32 32 32 33 33 33 32 33 33 33 33 33 33 33 33 33 32 32 32 32
13 14 15 16 18 19 20 22 23 25 26 27 28 29 30 31 32 32 33 32 31 30 30 30 31 31 31 32 32 32 32 32 33 33 33 33 33 33 33 32 32 32 32
11 13 15 17 18 19 20 22 23 24 25 26 28 29 29 30 30 31 31 30 30 29 29 29 30 31 32 32 32 32 32 32 33 33 33 33 32 33 33 33 33 33 33
10 12 14 16 17 18 19 21 22 24 25 26 27 28 28 29 29 29 29 30 30 30 30 30 31 31 32 33 33 34 33 33 33 33 33 33 33 33 33 33 34 33 33
10 12 14 15 16 18 19 21 22 24 25 26 26 27 27 27 28 29 29 30 30 31 31 31 32 32 33 34 35 35 35 35 34 34 34 34 34 33 33 33 33 33 34
10 12 14 15 17 19 21 22 24 25 26 26 27 27 27 28 28 29 30 30 31 32 32 33 34 34 35 36 36 36 37 37 37 36 36 36 35 35 34 33 33 33 34
11 13 14 16 18 20 22 23 25 26 26 27 28 28 28 29 30 30 31 32 32 33 34 35 36 36 37 37 37 37 38 38 39 39 38 37 37 36 36 35 34 34 35
12 14 15 17 19 21 23 25 26 27 28 29 29 29 30 31 31 32 33 34 35 36 36 37 38 38 38 38 37 37 37 38 39 40 40 39 39 38 37 37 36 35 35
14 15 16 18 21 23 25 27 28 29 30 30 30 31 32 33 34 35 36 37 37 38 38 38 38 38 38 38 37 37 37 38 38 39 40 41 41 40 39 39 38 37 37
16 17 19 21 23 25 27 29 30 31 32 32 33 33 34 36 37 37 38 39 40 40 40 40 39 38 38 38 37 37 37 37 37 38 39 41 42 42 41 41 40 39 38
18 19 21 23 25 27 28 30 31 33 34 34 35 35 37 38 39 40 41 41 41 42 41 41 40 39 38 38 37 37 36 36 36 37 38 40 42 43 44 43 43 42 41
20 21 22 24 26 28 30 31 33 34 35 36 37 38 39 40 41 42 43 43 43 43 43 42 41 40 39 38 37 36 35 35 35 36 37 38 41 42 44 45 46 46 45
21 22 23 25 27 29 31 33 35 36 37 38 39 40 41 42 43 44 45 45 45 44 44 43 42 40 38 37 36 35 35 35 36 36 37 39 40 42 44 46 47 48 48
22 23 24 26 28 30 33 35 37 38 39 39 40 41 43 44 45 46 46 46 45 45 45 43 42 40 38 36 36 35 35 35 36 37 38 40 41 43 45 46 48 49 50
23 24 25 28 30 32 34 37 39 39 40 40 41 42 44 45 46 46 47 46 46 46 45 43 41 39 38 37 36 35 35 36 36 38 39 40 41 43 46 47 49 51 52
24 25 27 29 32 34 36 39 40 41 41 41 42 43 45 46 47 47 47 47 46 45 44 42 40 39 38 38 37 37 36 36 36 37 39 40 41 43 45 47 50 52 53
25 26 29 31 33 35 37 39 41 41 42 42 43 44 46 47 48 48 47 47 46 45 43 42 40 39 39 39 38 37 36 35 36 36 37 39 40 42 44 46 49 51 54
26 28 30 32 34 36 38 40 41 41 42 43 44 45 47 48 48 48 47 46 46 44 43 42 41 39 39 38 36 36 35 35 35 36 37 38 39 41 44 45 47 50 53
28 30 32 34 35 37 39 40 41 42 43 44 45 46 48 48 48 47 46 46 45 44 43 42 40 39 38 37 35 34 33 32 33 34 35 36 37 39 42 44 47 49 52
30 31 33 35 37 38 40 41 42 43 44 45 46 48 49 48 48 47 47 46 45 43 42 41 39 38 37 35 33 32 32 31 31 31 32 33 34 36 39 41 44 47 52
31 33 35 37 38 40 41 42 43 44 45 46 48 49 49 49 48 47 47 45 44 43 41 40 38 37 35 34 32 31 30 30 30 29 28 28 28 30 32 35 40 45 49
33 35 37 39 40 41 42 43 44 46 47 48 49 50 49 49 48 47 45 44 43 41 39 38 37 35 34 33 31 30 29 28 27 25 23 22 23 24 25 28 33 40 45
36 37 39 40 42 43 43 44 46 48 50 51 51 50 49 49 48 47 45 43 42 40 38 37 35 33 32 31 30 28 27 26 24 21 19 18 18 19 20 22 27 33 39
38 39 40 42 43 44 45 46 49 51 52 52 52 51 50 48 47 46 44 42 41 38 36 35 34 32 31 30 30 27 25 24 21 18 16 15 14 14 14 16 20 26 32
40 41 42 43 44 45 47 49 51 53 54 54 53 51 49 47 45 44 42 41 39 37 35 34 33 32 31 30 29 27 24 22 19 16 14 13 12 11 10 12 16 20 26
Wind_Direction
296 300 304 309 312 315 316 317 317 316 316 314 313 311 310 308 307 304 302 300 297 295 292 290 288 286 285 283 281 279 277 273 271 269 266 264 263 261 259 257 254 250 246
295 300 304 312 316 318 319 319 318 317 316 314 313 311 310 308 307 306 304 302 300 297 294 292 290 288 286 283 281 279 277 274 271 268 266 263 261 260 259 256 252 248 245
297 304 309 315 317 318 317 317 316 314 312 311 310 308 307 306 305 304 303 301 299 297 294 292 290 289 287 285 282 280 277 275 273 269 266 263 260 260 258 255 251 247 244
301 307 312 314 315 317 317 316 314 313 312 311 310 309 308 307 306 305 304 303 301 300 298 294 291 289 288 286 284 281 278 275 273 270 267 264 260 258 256 255 251 246 242
307 309 310 312 314 316 316 317 317 316 315 314 314 313 312 311 310 309 308 306 305 304 302 300 296 293 290 287 285 282 279 275 272 269 266 263 260 257 255 253 250 246 241
305 307 310 314 316 318 320 321 322 322 322 321 320 320 319 318 317 316 315 313 311 308 306 303 299 296 292 288 285 281 277 274 270 267 264 262 259 257 254 251 248 246 241
307 311 314 316 320 324 326 326 327 328 328 329 328 327 326 324 322 321 319 317 315 312 310 307 303 299 294 289 285 281 276 272 268 265 262 259 257 254 253 250 246 243 240
313 315 318 322 326 329 331 333 334 335 335 334 333 332 331 329 327 325 323 321 318 315 312 308 305 301 297 292 286 280 275 271 266 262 259 256 253 251 250 248 245 240 237
317 319 323 328 332 335 337 339 340 339 338 336 334 333 332 331 330 328 326 324 321 318 315 311 307 303 298 293 288 282 276 271 266 261 257 253 250 248 246 245 243 240 236
323 325 329 334 337 340 341 342 341 339 337 335 334 333 332 332 331 330 328 326 324 321 317 313 308 304 299 294 289 283 278 272 267 261 256 252 249 247 244 242 241 239 236
326 330 335 337 340 342 342 342 340 338 336 335 334 334 333 333 332 331 330 327 325 322 319 314 310 304 299 295 290 285 280 274 268 262 257 253 249 246 244 241 240 238 236
331 334 336 338 340 341 341 340 338 337 336 335 334 334 333 333 332 331 330 328 326 323 320 316 311 306 301 296 291 286 281 275 269 263 257 252 250 247 244 241 239 237 236
332 334 335 336 338 338 338 337 336 336 335 335 334 333 333 332 332 331 329 328 326 324 321 317 313 308 302 297 292 287 281 275 270 264 259 253 250 247 245 242 240 238 236
329 331 332 334 336 336 336 336 336 335 334 333 333 332 332 331 331 330 329 328 326 324 322 319 315 310 304 299 294 289 283 277 271 266 261 256 252 249 246 243 240 238 236
326 328 331 332 333 334 334 335 335 334 333 333 332 332 331 331 330 330 329 327 326 325 322 319 316 312 307 301 296 291 285 279 274 269 264 259 255 251 247 244 241 238 236
325 327 329 331 332 333 333 334 333 333 332 332 331 331 331 330 329 329 328 327 326 324 322 319 317 313 308 304 298 293 287 282 276 271 267 262 257 252 248 245 241 239 236
324 326 328 329 330 331 331 331 331 331 331 331 331 330 330 330 329 328 328 327 326 325 323 320 317 314 310 306 301 296 291 285 279 274 269 264 259 254 249 245 242 238 235
323 324 326 328 329 329 329 330 330 330 330 330 330 330 330 329 329 329 328 327 326 325 323 321 318 315 312 309 304 299 294 289 282 277 272 267 262 257 251 246 242 239 235
321 323 325 326 327 327 328 328 329 330 330 330 330 329 329 329 328 328 328 327 327 326 324 322 320 317 315 312 308 302 298 292 287 281 276 270 265 259 253 247 242 238 235
320 322 323 324 324 325 326 327 329 329 330 330 329 329 329 329 328 328 328 328 327 327 326 324 322 320 318 315 312 307 302 297 291 285 279 273 267 260 255 249 243 238 234
319 320 321 322 322 323 325 326 328 329 329 329 329 329 329 328 328 328 328 328 328 327 326 325 324 323 321 319 315 311 305 301 296 290 283 276 270 263 258 251 243 236 232
316 318 320 321 322 323 325 326 328 329 329 328 327 328 328 328 328 328 328 328 328 328 327 327 326 325 324 322 319 316 311 307 303 296 288 280 273 267 259 251 242 236 231
315 317 319 321 322 324 325 326 327 328 328 328 328 328 328 329 329 329 329 329 329 329 328 329 329 328 326 326 323 321 317 313 309 303 294 286 279 271 260 249 241 234 229
314 316 319 321 322 324 325 326 327 327 327 327 328 328 327 328 330 329 329 329 330 329 329 330 331 330 329 328 327 325 324 321 316 310 302 296 288 276 262 249 240 232 227
314 316 319 321 322 323 325 326 326 327 327 327 327 327 327 327 329 329 329 329 330 330 330 331 332 332 331 330 329 328 327 326 323 317 311 304 296 286 265 248 235 228 222
313 315 318 320 321 322 323 324 324 325 326 326 326 327 327 327 328 329 329 330 331 331 331 333 334 334 333 333 331 330 328 327 325 321 318 312 304 292 271 247 232 224 218
Height
5856 5855 5855 5854 5852 5851 5849 5847 5845 5842 5840 5838 5835 5833 5830 5828 5825 5823 5820 5818 5816 5814 5811 5810 5808 5806 5805 5804 5803 5803 5803 5803 5803 5804 5805 5807 5807 5809 5810 5811 5813 5815 5817
5853 5853 5852 5851 5850 5848 5846 5843 5841 5839 5836 5833 5830 5828 5825 5822 5819 5816 5813 5810 5808 5806 5804 5802 5800 5798 5796 5795 5794 5794 5794 5793 5794 5795 5796 5797 5799 5800 5801 5802 5804 5806 5808
5851 5851 5850 5849 5847 5845 5843 5841 5838 5835 5832 5829 5826 5822 5819 5816 5812 5809 5806 5803 5801 5798 5796 5794 5792 5790 5788 5787 5786 5785 5785 5785 5785 5785 5786 5788 5789 5791 5792 5793 5795 5797 5800
5850 5849 5848 5847 5845 5843 5840 5838 5835 5832 5828 5824 5821 5817 5813 5809 5806 5802 5799 5796 5793 5790 5788 5786 5784 5781 5780 5778 5777 5776 5776 5776 5775 5776 5776 5778 5779 5781 5783 5784 5786 5788 5791
5848 5848 5847 5845 5843 5840 5838 5835 5831 5827 5823 5819 5815 5811 5807 5803 5799 5795 5792 5788 5785 5783 5780 5778 5775 5773 5771 5769 5768 5767 5766 5766 5766 5766 5767 5768 5769 5771 5773 5775 5777 5779 5782
5848 5847 5845 5843 5841 5838 5834 5831 5827 5822 5818 5813 5809 5805 5801 5797 5793 5789 5785 5781 5778 5775 5772 5769 5766 5764 5762 5760 5758 5757 5756 5756 5756 5756 5757 5758 5760 5761 5763 5766 5768 5770 5773
5847 5845 5843 5840 5837 5834 5830 5826 5821 5817 5812 5807 5803 5799 5794 5790 5786 5782 5778 5774 5770 5767 5763 5760 5757 5754 5752 5750 5748 5746 5746 5745 5745 5746 5747 5748 5749 5751 5753 5756 5758 5761 5764
5844 5842 5840 5837 5833 5830 5825 5821 5816 5811 5806 5802 5797 5793 5789 5784 5780 5776 5772 5767 5763 5759 5755 5751 5747 5744 5741 5739 5737 5735 5734 5734 5734 5734 5735 5737 5739 5741 5743 5746 5749 5752 5755
5842 5839 5836 5833 5829 5825 5820 5815 5811 5806 5801 5797 5792 5788 5783 5778 5774 5769 5765 5760 5755 5750 5746 5741 5737 5733 5730 5727 5725 5723 5722 5722 5722 5722 5724 5726 5728 5730 5733 5736 5739 5743 5746
5839 5835 5832 5828 5824 5820 5815 5810 5805 5801 5796 5792 5787 5782 5777 5772 5767 5762 5757 5752 5747 5742 5737 5732 5727 5722 5719 5715 5713 5711 5710 5710 5710 5710 5712 5714 5716 5719 5722 5725 5729 5733 5737
5835 5831 5827 5823 5819 5814 5809 5805 5801 5796 5792 5787 5782 5777 5771 5766 5760 5755 5749 5744 5738 5733 5727 5722 5717 5712 5708 5704 5701 5699 5698 5697 5697 5698 5699 5701 5704 5707 5710 5714 5718 5722 5727
5829 5825 5822 5818 5814 5809 5805 5801 5796 5792 5786 5781 5776 5770 5765 5759 5753 5747 5741 5735 5729 5723 5717 5712 5706 5701 5697 5693 5690 5687 5685 5685 5685 5685 5687 5689 5691 5695 5698 5702 5707 5711 5716
5824 5820 5817 5813 5809 5805 5801 5796 5791 5786 5781 5775 5770 5764 5758 5752 5746 5739 5733 5727 5720 5713 5707 5701 5696 5690 5685 5681 5678 5676 5674 5673 5672 5673 5674 5676 5678 5681 5685 5689 5694 5699 5704
5819 5816 5812 5809 5804 5800 5796 5791 5786 5781 5775 5769 5763 5757 5751 5744 5738 5731 5724 5717 5711 5704 5697 5691 5685 5679 5674 5670 5666 5664 5662 5660 5660 5660 5661 5663 5665 5668 5671 5676 5680 5685 5691
5815 5812 5808 5804 5800 5795 5791 5785 5780 5775 5769 5763 5757 5750 5743 5737 5730 5723 5715 5708 5701 5694 5687 5680 5674 5668 5663 5658 5655 5652 5650 5648 5647 5647 5647 5649 5651 5654 5657 5661 5666 5671 5677
5810 5807 5803 5799 5795 5790 5785 5780 5774 5768 5762 5756 5750 5743 5736 5729 5722 5714 5707 5699 5691 5684 5677 5670 5663 5657 5652 5647 5643 5640 5637 5635 5634 5633 5632 5633 5636 5638 5642 5646 5651 5656 5663
5805 5802 5798 5794 5789 5784 5779 5774 5768 5762 5756 5750 5743 5736 5729 5721 5713 5706 5698 5690 5682 5674 5667 5659 5653 5647 5641 5636 5631 5627 5624 5622 5620 5618 5617 5618 5620 5622 5625 5629 5634 5640 5647
5800 5797 5792 5788 5784 5779 5773 5768 5762 5756 5749 5743 5736 5728 5721 5713 5705 5697 5689 5681 5673 5665 5657 5649 5642 5636 5630 5624 5619 5614 5611 5608 5606 5604 5603 5603 5604 5606 5609 5613 5618 5624 5631
5795 5791 5787 5783 5778 5773 5767 5762 5756 5749 5742 5735 5728 5721 5713 5705 5696 5688 5680 5672 5663 5655 5647 5639 5632 5625 5619 5612 5607 5602 5598 5595 5592 5590 5588 5588 5588 5589 5592 5596 5602 5608 5614
5789 5785 5781 5777 5772 5767 5761 5755 5749 5742 5735 5728 5720 5713 5705 5697 5688 5680 5671 5662 5654 5645 5637 5630 5622 5615 5609 5602 5596 5591 5586 5583 5579 5576 5574 5572 5572 5573 5575 5579 5584 5591 5597
5783 5779 5775 5771 5766 5760 5754 5748 5741 5735 5728 5720 5713 5705 5697 5688 5680 5671 5662 5654 5645 5637 5629 5621 5613 5606 5599 5593 5586 5581 5576 5571 5567 5563 5560 5558 5557 5557 5559 5562 5567 5573 5578
5777 5773 5768 5764 5758 5753 5747 5741 5734 5727 5720 5713 5705 5697 5688 5680 5671 5663 5654 5645 5637 5629 5620 5612 5605 5597 5590 5584 5578 5571 5566 5561 5556 5551 5548 5545 5544 5544 5544 5546 5550 5555 5562
5770 5766 5761 5756 5751 5745 5739 5733 5726 5719 5712 5704 5696 5688 5679 5671 5663 5654 5646 5637 5629 5621 5613 5605 5598 5590 5583 5576 5570 5564 5558 5552 5547 5542 5538 5536 5534 5533 5533 5534 5537 5541 5548
5763 5759 5754 5748 5743 5737 5731 5724 5718 5711 5704 5696 5688 5679 5671 5662 5654 5646 5638 5630 5622 5614 5606 5599 5591 5584 5577 5570 5563 5557 5551 5545 5540 5535 5532 5529 5526 5525 5524 5525 5527 5531 5537
5755 5750 5745 5740 5734 5728 5722 5716 5710 5703 5695 5687 5679 5671 5663 5654 5646 5638 5630 5623 5615 5607 5600 5593 5586 5579 5572 5565 5558 5552 5546 5540 5535 5531 5527 5524 5522 5519 5518 5519 5520 5524 5529
5746 5742 5737 5731 5726 5720 5714 5708 5701 5694 5687 5679 5670 5662 5654 5646 5639 5631 5623 5615 5608 5601 5594 5587 5580 5573 5567 5560 5553 5547 5541 5536 5531 5527 5524 5521 5518 5516 5515 5515 5516 5519 5523